Regional Weather Roundup
Issued by NWS

Home | Current Version | Previous Version | Graphics & Text | Print | Product List | Glossary On
Versions: 1 2 3 4 5 6 7 8 9 10 11 12 13 14 15 16 17 18 19 20 21 22 23 24 25 26 27
000
ASUS45 KCYS 151610
RWRWY

WYOMING REGIONAL WEATHER ROUNDUP
NATIONAL WEATHER SERVICE CHEYENNE WY
900 AM MST FRI DEC 15 2017

NOTE:  "FAIR" INDICATES FEW OR NO CLOUDS BELOW 12,000 FEET
WITH NO SIGNIFICANT WEATHER AND/OR OBSTRUCTIONS TO VISIBILITY.

WYZ001-151700-
YELLOWSTONE NATIONAL PARK

CITY           SKY/WX    TMP DP  RH WIND       PRES   REMARKS
LK YELLOWSTONE   N/A     16  14  92 CALM      30.22F
W YELLOWSTONE  NOT AVBL

$$
WYZ002>013-054>058-071-098>099-151700-
NORTHERN WYOMING

CITY           SKY/WX    TMP DP  RH WIND       PRES   REMARKS
JACKSON        MOCLDY    13  11  92 CALM      30.28S
CODY           FAIR      24  17  74 NE9       29.95R WCI  14
GREYBULL       FAIR      20  16  84 SE3       30.01F
WORLAND        FAIR      19  16  88 SW5       30.01R WCI  12
SHERIDAN       FAIR      33  22  63 CALM      29.83S
BUFFALO        FAIR      42   5  21 S6        29.85F
GILLETTE       FAIR      39  16  39 SW10      29.86F WCI  32
HULETT         FAIR      36  14  41 SW12      29.86S WCI  27
NEWCASTLE      FAIR      28  19  69 CALM      29.92F

$$
WYZ014>020-022>026-101>103-151700-
CENTRAL WYOMING

CITY           SKY/WX    TMP DP  RH WIND       PRES   REMARKS
BIG PINEY      FAIR      12   7  80 NW6       30.20S WCI   3
PINEDALE       FAIR      21  14  73 W10       30.19S WCI  10
DUBOIS         FAIR      30   7  37 NW24G31   30.07F WCI  16
LANDER         FAIR      15  10  80 SE5       30.03F WCI   8
RIVERTON       FAIR      19  16  88 CALM      30.04F
CASPER         FAIR      32  15  49 SW28G37   30.02S WCI  18
DOUGLAS        FAIR      38  20  48 NW13      29.95R WCI  30

$$
WYZ021-027>030-104>119-151700-
SOUTHERN WYOMING

CITY           SKY/WX    TMP DP  RH WIND       PRES   REMARKS
EVANSTON       FAIR      25  15  66 SW14      30.25F WCI  13
FORT BRIDGER   FAIR      35   5  29 W16G23    30.24F WCI  24
ROCK SPRINGS   FAIR      30  12  47 SW10      30.20S WCI  21
DIXON          FAIR      16  10  80 CALM      30.30S
RAWLINS        FAIR      30  16  56 SW20G30   30.15R WCI  17
SARATOGA       FAIR      23  10  58 SE9       30.21R WCI  13
LARAMIE        FAIR      27  12  53 SW13      30.08R WCI  16
CHEYENNE       FAIR      40  11  30 W26G39    29.98R WCI  29
TORRINGTON     FAIR      41  17  38 NW9       29.94F
PINE BLUFFS    FAIR      30  19  64 MISG      30.00S

$$




USA.gov is the U.S. government's official web portal to all federal, state and local government web resources and services.